839  
ASUS43 KOAX 211603  
RWRNE  
 
WEATHER ROUNDUP FOR NEBRASKA  
NATIONAL WEATHER SERVICE OMAHA NE  
1000 AM CST MON JAN 21 2019  
 
NOTES: SATELLITE DATA IS BEING USED TO AUGMENT CLOUD COVER ABOVE  
12000 FEET.  
"FAIR" INDICATES FEW OR NO CLOUDS BELOW 12,000 FEET WITH NO  
SIGNIFICANT WEATHER AND/OR S TO VISIBILITY
.  
 
 
NEZ001>004-019>022-054>056-211700-  
NEBRASKA PANHANDLE  
 
CITY SKY/WX TMP DP RH WIND PRES REMARKS
 
SCOTTSBLUFF CLOUDY 29 29 100 SE14 29.57F FOG WCI 18  
ALLIANCE FOG 25 25 100 S20 29.59S VSB 1/2 WCI 11  
CHADRON CLOUDY 33 28 81 S14 29.55F WCI 23  
GORDON CLOUDY 30 27 89 SW13 29.58F WCI 20  
KIMBALL SNOW 25 24 96 S6 29.56F VSB<1/4 WCI 18  
SIDNEY FOG 26 26 100 S14 29.60F VSB 1/4 WCI 14  

 
 
NEZ057>060-069>072-079>082-211700-  
SOUTHWEST NEBRASKA  
 
CITY SKY/WX TMP DP RH WIND PRES REMARKS
 
NORTH PLATTE CLOUDY 22 17 81 S9G17 29.76F HAZE WCI 12  
IMPERIAL FOG 21 17 84 SE16 29.69F VSB 1/2 WCI 7  
LEXINGTON CLOUDY 20 17 90 SE7 29.83S FOG WCI 11  
MCCOOK FOG 20 19 96 SE10 29.77S VSB 1/2 WCI 9  
OGALLALA FOG N/A N/A N/A SE7 29.69F VSB 3/4  

 
 
NEZ005>010-023>029-035>040-094-211700-  
NORTH CENTRAL NEBRASKA  
 
CITY SKY/WX TMP DP RH WIND PRES REMARKS
 
VALENTINE CLOUDY 21 18 88 S20 29.71F WCI 6  
AINSWORTH CLOUDY 17 16 96 CALM 29.76F  
BROKEN BOW CLOUDY 18 15 88 SE17 29.81F WCI 3  
O'NEILL LGT SNOW 15 13 89 S8 29.88F WCI 5  
ORD LGT SNOW 16 12 84 SE12G22 29.87F FOG WCI 3  
THEDFORD CLOUDY 19 18 94 S9 29.73F FOG WCI 8  

 
 
NEZ041-046>049-061>064-073>077-083>087-211700-  
SOUTH CENTRAL NEBRASKA  
 
CITY SKY/WX TMP DP RH WIND PRES REMARKS
 
GRAND ISLAND CLOUDY 16 13 88 SE15G23 29.90F WCI 1  
AURORA CLOUDY 15 14 94 SE21G28 29.90F WCI -2  
HASTINGS CLOUDY 19 14 81 SE16G25 29.88F HAZE WCI 4  
HEBRON CLOUDY 20 16 85 SE15G23 29.94F WCI 6  
HOLDREGE CLOUDY 18 18 99 SE9 29.83S WCI 7  
KEARNEY CLOUDY 17 14 88 SE14 29.87R WCI 3  
YORK CLOUDY 16 14 93 MISG 29.93F  

 
 
NEZ011>018-030>034-042>045-211700-  
NORTHEAST NEBRASKA  
 
CITY SKY/WX TMP DP RH WIND PRES REMARKS
 
NORFOLK LGT SNOW 14 10 84 SE18G26 29.97F FOG WCI -3  
ALBION LGT SNOW 15 12 87 SE17G23 29.93S WCI -1  
BLAIR LGT SNOW 14 10 81 SE26 30.04F WCI -5  
COLUMBUS LGT SNOW 14 10 84 SE14G23 30.00F FOG WCI -1  
FREMONT CLOUDY 16 11 78 SE18G25 30.05F WCI 0  
TEKAMAH MOSUNNY 15 8 73 SE24G35 30.10F WCI -4  
WAYNE FLURRIES 14 5 68 SE21G28 30.01F WCI -4  

 
 
NEZ050>053-065>068-078-088>093-211700-  
SOUTHEAST NEBRASKA  
 
CITY SKY/WX TMP DP RH WIND PRES REMARKS
 
LINCOLN LGT SNOW 14 10 84 SE22G29 30.05F FOG WCI -4  
OMAHA EPPLEY CLOUDY 14 7 73 SE25G33 30.11F WCI -5  
BEATRICE CLOUDY 18 15 86 SE20G26 30.00F WCI 2  
FALLS CITY CLOUDY 16 12 84 SE17G26 30.12F WCI 0  
NEBRASKA CITY LGT SNOW 14 9 80 SE18 30.09F WCI -3  
PLATTSMOUTH LGT SNOW 13 9 85 SE21G28 30.08F WCI -6  

 
 
NEZ044-045-051>053-067-211700-  
OMAHA AREA  
 
CITY SKY/WX TMP DP RH WIND PRES REMARKS
 
OMAHA EPPLEY CLOUDY 14 7 73 SE25G33 30.11F WCI -5  
BLAIR LGT SNOW 14 10 81 SE26 30.04F WCI -5  
FREMONT CLOUDY 16 11 78 SE18G25 30.05F WCI 0  
MILLARD LGT SNOW 15 9 76 SE15G24 30.09F WCI -1  
OFFUTT AFB CLOUDY 13 13 100 E22G28 30.10F WCI -6  
PLATTSMOUTH LGT SNOW 13 9 85 SE21G28 30.08F WCI -6  
WAHOO LGT SNOW 13 10 87 SE21G26 30.05F WCI -5  

 
 
 
CLICK HERE TO GO TO PREVIOUS BULLETINS.

The Nexlab NE Page Main Text Page